Simultaneous Nadir Overpasses (SNOs) Predictions

Prediction of SNOs between GOES-15 and METOP-B Satellite Orbit:

Table of predicted SNOs for the next 14.0 days since TLE Epoch: 3/30/2024
Index Date Time (GOES-15) GOES-15 Lat,Lon METOP-B Lat,Lon Distance(km) Time Diff (sec)
1 03/30/2024 05:35:43 -0.06, 61.21 0.89, 56.96 484.36 80
2 03/31/2024 05:17:44 -0.06, 61.21 -0.22, 61.95 83.74 80
3 04/01/2024 17:36:44 0.08, 61.19 -0.78, 57.34 438.80 80
4 04/02/2024 17:13:24 0.07, 61.20 0.34, 62.33 128.67 80
5 04/04/2024 05:32:16 -0.08, 61.25 0.69, 57.76 398.17 80
6 04/05/2024 05:14:16 -0.08, 61.26 -0.44, 62.74 169.61 80
7 04/06/2024 17:33:16 0.08, 61.24 -0.61, 58.14 352.89 80
8 04/07/2024 17:09:55 0.08, 61.25 0.47, 63.14 214.59 80
9 04/09/2024 05:28:46 -0.09, 61.31 0.54, 58.57 312.76 80
10 04/10/2024 05:10:47 -0.08, 61.32 -0.60, 63.56 254.64 80
11 04/11/2024 17:29:46 0.10, 61.31 -0.42, 58.95 268.38 80
12 04/12/2024 17:06:26 0.10, 61.33 0.66, 63.95 298.37 80
